Location: Battersea Observatory
(44.4318°N, 76.3841°W)
Time: 22:45:41
(UTC-04:00)

Tiros 1 despin weight - Pass Details

Date: 30 January 2022
Orbit: 592 x 639 km, 48.2° (Epoch: 25 May)

Event Time Altitude Azimuth Distance (km) Brightness Sun altitude
Rises 19:10:18 0° 290° (WNW) 2,896 ? -21.2°
Reaches altitude 10° 19:12:36 10° 292° (WNW) 1,996 ? -21.6°
Maximum altitude 19:17:12 76° 18° (NNE) 653 ? -22.4°
Enters shadow 19:17:39 69° 69° (ENE) 678 ? -22.5°
Drops below altitude 10° 19:21:52 10° 105° (ESE) 2,018 - -23.2°
Sets 19:24:12 0° 107° (ESE) 2,930 - -23.7°
